[[{"header":{"parameterUnit":"m.s-1","parameterCategory":1,"la1":30.2991,"la2":30.254,"lo1":-89.0895,"lo2":-89.0444,"dy":0.0017,"dx":0.0017,"nx":28,"ny":28,"refTime":"2023-03-29T21:00:00:Z","depth":0,"parameterNumber":2,"parameterNumberName":"U-component_of_WINDS"},"data":[0,0,0,0,0,0,0,0,0,0,0,0,0,0,0,0,0,0,0,0,0,0,0,0,0,0,0,0,0,0,0,0,0,0,0,0,0,0,0,0,0,0,0,0,0,0,0,0,0,0,0,0,0,0,0,0,0,0,-1.4215,-1.4215,0,-1.425,-1.425,-1.425,-1.4207,-1.4206,-1.4204,-1.4203,-1.4243,-1.4245,-1.4248,0,0,0,0,0,0,0,0,0,0,0,0,0,-1.4114,-1.4116,-1.4214,-1.4215,-1.4215,-1.425,-1.425,-1.425,-1.4208,-1.4206,-1.4204,-1.4202,-1.4242,-1.4245,-1.4248,0,0,0,0,0,0,0,0,0,0,0,0,0,-1.4154,-1.4116,-1.4214,-1.4198,-1.4197,-1.4249,-1.425,-1.4251,-1.4208,-1.4206,-1.4203,-1.4201,-1.4241,-1.4244,-1.4248,-1.432,0,0,-1.426,-1.4262,0,0,0,0,0,0,0,0,-1.4152,-1.4158,-1.42,-1.4199,-1.4198,-1.4222,-1.4229,-1.4274,-1.4209,-1.4204,-1.4203,-1.42,-1.4238,-1.4242,-1.4254,-1.4322,-1.4323,-1.426,-1.4263,-1.4264,-1.4265,0,0,0,0,0,0,0,-1.4149,-1.4156,-1.4228,-1.4201,-1.42,-1.419,-1.4193,-1.4237,-1.4234,-1.4204,-1.4201,-1.4206,-1.4237,-1.425,-1.4254,-1.4324,-1.426,-1.4264,-1.4266,-1.4267,-1.4453,-1.4456,0,0,0,0,0,0,-1.4148,-1.4154,-1.4227,-1.4229,-1.4168,-1.4194,-1.4197,-1.4217,-1.4233,-1.4234,-1.4208,-1.4204,-1.4245,-1.425,-1.4256,-1.4342,-1.4264,-1.4268,-1.427,-1.4451,-1.4454,-1.4457,0,0,0,0,0,0,-1.4146,-1.4155,-1.4226,-1.4191,-1.4199,-1.4198,-1.422,-1.4219,-1.4232,-1.4236,-1.4236,-1.4222,-1.4243,-1.425,-1.4304,-1.4342,-1.4269,-1.4273,-1.4448,-1.4452,-1.4455,-1.4514,0,0,0,0,0,0,-1.4143,-1.4154,-1.4181,-1.4192,-1.4201,-1.4273,-1.4222,-1.4221,-1.4238,-1.4233,-1.4249,-1.4249,-1.4242,-1.4299,-1.4308,-1.4346,-1.4276,-1.4444,-1.4449,-1.4454,-1.4508,-1.4519,-1.4528,0,0,0,0,0,-1.414,-1.4196,-1.4182,-1.4191,-1.4234,-1.4275,-1.4281,-1.427,-1.4241,-1.4268,-1.4271,-1.4249,-1.4336,-1.4304,-1.4315,-1.4355,-1.4442,-1.4448,-1.4454,-1.4504,-1.4517,-1.4528,0,0,0,0,0,0,-1.4191,-1.4197,-1.4182,-1.4244,-1.4259,-1.4268,-1.4302,-1.4284,-1.4309,-1.4303,-1.4289,-1.4293,-1.4351,-1.4358,-1.4323,-1.4425,-1.4384,-1.4393,-1.4419,-1.4432,-1.4441,-1.444,-1.4279,0,0,0,0,0,-1.4209,-1.4241,-1.4245,-1.4299,-1.4308,-1.4304,-1.4321,-1.4311,-1.4327,-1.4334,-1.434,-1.4358,-1.4389,-1.441,-1.4439,-1.4508,-1.4512,-1.4541,-1.4551,-1.4559,-1.4567,-1.4606,-1.4619,-1.4476,-1.4476,-1.4476,0,0,-1.4248,-1.4255,-1.4276,-1.431,-1.4321,-1.4355,-1.431,-1.4348,-1.4374,-1.434,-1.4392,-1.4397,-1.4415,-1.4478,-1.4505,-1.4485,-1.4607,-1.4567,-1.4573,-1.4577,-1.4613,-1.4627,-1.4639,-1.448,-1.448,-1.4479,0,0,-1.4336,-1.4344,-1.4391,-1.4402,-1.4419,-1.4415,-1.4427,-1.4438,-1.444,-1.4491,-1.4467,-1.4498,-1.4552,-1.4566,-1.4581,-1.4674,-1.4655,-1.4684,-1.4737,-1.4775,-1.4786,-1.4796,-1.4831,-1.4844,-1.4691,-1.4691,-1.4692,0,-1.4383,-1.4433,-1.4417,-1.4458,-1.4474,-1.4443,-1.4491,-1.4503,-1.4529,-1.4541,-1.4517,-1.4585,-1.4595,-1.4661,-1.4683,-1.4695,-1.4709,-1.4683,-1.4785,-1.4795,-1.4804,-1.4838,-1.4851,-1.4695,-1.4695,-1.4694,-1.4694,0,-1.449,-1.4525,-1.4561,-1.4586,-1.4605,-1.4649,-1.4641,-1.4663,-1.4651,-1.4651,-1.4704,-1.4715,-1.4746,-1.476,-1.4749,-1.4825,-1.4812,-1.4787,-1.4746,-1.4822,-1.4853,-1.4866,-1.47,-1.4699,-1.4698,-1.4697,0,0,-1.4614,-1.4628,-1.4642,-1.4653,-1.4669,-1.4696,-1.4739,-1.4768,-1.4788,-1.4807,-1.4844,-1.4889,-1.4866,-1.4883,-1.4873,-1.4906,-1.4981,-1.4877,-1.4877,-1.4898,-1.5068,-1.5088,-1.5103,-1.4968,-1.497,-1.4972,-1.5067,0,-1.4704,-1.4777,-1.4764,-1.4836,-1.4869,-1.484,-1.4877,-1.4892,-1.4892,-1.4921,-1.4922,-1.4956,-1.4921,-1.4931,-1.4962,-1.4966,-1.5016,-1.4958,-1.5004,-1.5006,-1.5003,-1.5119,-1.5141,-1.523,-1.5079,-1.5081,-1.5082,0,-1.482,-1.4842,-1.4916,-1.4927,-1.494,-1.4974,-1.5,-1.5028,-1.5044,-1.5042,-1.506,-1.5044,-1.5088,-1.5044,-1.5106,-1.5067,-1.5085,-1.5089,-1.5093,-1.5099,-1.5051,-1.5131,-1.5258,-1.5273,-1.5101,-1.51,-1.5098,0,-1.4906,-1.4953,-1.5004,-1.5015,-1.5028,-1.5052,-1.5059,-1.5072,-1.5091,-1.5114,-1.5126,-1.5154,-1.517,-1.5193,-1.5186,-1.5154,-1.525,-1.5205,-1.5252,-1.5252,-1.5275,-1.5274,-1.541,-1.5282,-1.5282,-1.5282,-1.5282,0,-1.5009,-1.5057,-1.5043,-1.5075,-1.5128,-1.5112,-1.5165,-1.5169,-1.5181,-1.5214,-1.5189,-1.5221,-1.5208,-1.524,-1.5234,-1.5287,-1.5294,-1.5295,-1.5294,-1.5299,-1.5299,-1.5312,-1.5307,-1.5286,-1.5285,-1.5284,-1.5283,0,-1.5115,-1.5107,-1.5162,-1.5169,-1.5172,-1.5211,-1.5218,-1.5248,-1.5246,-1.5288,-1.5297,-1.5295,-1.5331,-1.5324,-1.5364,-1.536,-1.5428,-1.5417,-1.5422,-1.5421,-1.5468,-1.5465,-1.5619,-1.564,-1.5497,-1.5498,-1.5499,0,-1.5183,-1.5219,-1.523,-1.5249,-1.5258,-1.529,-1.5308,-1.5294,-1.5315,-1.5335,-1.5364,-1.5397,-1.5423,-1.5481,-1.5484,-1.5515,-1.5507,-1.5558,-1.5511,-1.5516,-1.551,-1.5509,-1.5514,-1.5569,-1.557,-1.5572,-1.5573,0,-1.5305,-1.5299,-1.5326,-1.5352,-1.5375,-1.5395,-1.5413,-1.5431,-1.5418,-1.5443,-1.5478,-1.5498,-1.5538,-1.5572,-1.56,-1.5609,-1.559,-1.5587,-1.56,-1.5607,-1.561,-1.5611,-1.545,-1.5584,-1.5583,-1.5582,-1.5582,-1.5581,-1.5396,-1.5426,-1.5439,-1.547,-1.5482,-1.5499,-1.5528,-1.5529,-1.5558,-1.5589,-1.5579,-1.562,-1.5635,-1.5671,-1.5682,-1.5715,-1.5696,-1.5714,-1.5719,-1.5725,-1.5732,-1.5602,-1.572,-1.572,-1.5719,-1.5719,-1.5719,0,-1.5519,-1.5525,-1.5553,-1.5579,-1.5604,-1.558,-1.5599,-1.5622,-1.5658,-1.5673,-1.5699,-1.574,-1.5773,-1.5777,-1.5809,-1.5834,-1.5827,-1.5843,-1.5843,-1.5846,-1.5745,-1.5732,-1.5849,-1.5849,-1.5849,-1.5849,-1.5849,-1.5849,-1.5586,-1.5637,-1.5633,-1.569,-1.5696,-1.5735,-1.5748,-1.5764,-1.5777,-1.5824,-1.585,-1.5852,-1.5864,-1.5896,-1.5925,-1.5926,-1.594,-1.596,-1.5958,-1.5865,-1.5852,-1.584,-1.5828,-1.5963,-1.5963,-1.6056,-1.6057,-1.6057]},{"header":{"parameterUnit":"m.s-1","parameterCategory":1,"la1":30.2991,"la2":30.254,"lo1":-89.0895,"lo2":-89.0444,"dy":0.0017,"dx":0.0017,"nx":28,"ny":28,"refTime":"2023-03-29T21:00:00:Z","depth":0,"parameterNumber":3,"parameterNumberName":"V-component_of_WINDS"},"data":[0,0,0,0,0,0,0,0,0,0,0,0,0,0,0,0,0,0,0,0,0,0,0,0,0,0,0,0,0,0,0,0,0,0,0,0,0,0,0,0,0,0,0,0,0,0,0,0,0,0,0,0,0,0,0,0,0,0,-2.1136,-2.1137,0,-2.1167,-2.1167,-2.1167,-2.1141,-2.114,-2.1139,-2.1138,-2.1168,-2.117,-2.1172,0,0,0,0,0,0,0,0,0,0,0,0,0,-2.1055,-2.1057,-2.1136,-2.1137,-2.1137,-2.1167,-2.1167,-2.1167,-2.1141,-2.114,-2.1139,-2.1137,-2.1168,-2.117,-2.1172,0,0,0,0,0,0,0,0,0,0,0,0,0,-2.1089,-2.1057,-2.1136,-2.1128,-2.1127,-2.1166,-2.1167,-2.1167,-2.1141,-2.114,-2.1138,-2.1137,-2.1167,-2.117,-2.1172,-2.1222,0,0,-2.1181,-2.1182,0,0,0,0,0,0,0,0,-2.1087,-2.1092,-2.1129,-2.1128,-2.1128,-2.1148,-2.1149,-2.1186,-2.1142,-2.1136,-2.1138,-2.1136,-2.1163,-2.1166,-2.1175,-2.1223,-2.1224,-2.1181,-2.1182,-2.1184,-2.1184,0,0,0,0,0,0,0,-2.1084,-2.109,-2.1148,-2.1129,-2.1129,-2.1122,-2.1125,-2.1156,-2.1158,-2.1136,-2.1135,-2.1139,-2.1162,-2.1173,-2.1176,-2.1225,-2.1181,-2.1183,-2.1185,-2.1186,-2.1315,-2.1317,0,0,0,0,0,0,-2.1083,-2.1088,-2.1147,-2.1149,-2.1103,-2.1125,-2.1128,-2.1143,-2.1158,-2.1158,-2.114,-2.1137,-2.1169,-2.1172,-2.1177,-2.1236,-2.1184,-2.1186,-2.1188,-2.1313,-2.1316,-2.1317,0,0,0,0,0,0,-2.1081,-2.1089,-2.1146,-2.1118,-2.1125,-2.1128,-2.1145,-2.1145,-2.1155,-2.116,-2.1161,-2.115,-2.1168,-2.1173,-2.1211,-2.1237,-2.1187,-2.119,-2.1311,-2.1314,-2.1317,-2.1355,0,0,0,0,0,0,-2.1079,-2.1088,-2.1107,-2.1119,-2.1127,-2.118,-2.1147,-2.1147,-2.116,-2.1157,-2.117,-2.1171,-2.1167,-2.1207,-2.1213,-2.124,-2.1192,-2.1309,-2.1312,-2.1316,-2.1352,-2.1359,-2.1365,0,0,0,0,0,-2.1076,-2.1117,-2.1108,-2.1116,-2.1151,-2.1182,-2.1186,-2.1181,-2.1162,-2.1181,-2.1185,-2.117,-2.1232,-2.1211,-2.1218,-2.1246,-2.1307,-2.1311,-2.1315,-2.1349,-2.1358,-2.1365,0,0,0,0,0,0,-2.1108,-2.1118,-2.1109,-2.1154,-2.1167,-2.1177,-2.1201,-2.119,-2.1209,-2.1205,-2.1198,-2.1201,-2.1242,-2.1247,-2.1223,-2.1294,-2.1267,-2.1273,-2.129,-2.1298,-2.1305,-2.1303,-2.1194,0,0,0,0,0,-2.112,-2.1145,-2.1152,-2.1191,-2.1198,-2.1199,-2.1212,-2.1207,-2.122,-2.1226,-2.1232,-2.1245,-2.1268,-2.1283,-2.1304,-2.1352,-2.1355,-2.1374,-2.1381,-2.1386,-2.1392,-2.1418,-2.1428,-2.1331,-2.1331,-2.1331,0,0,-2.1145,-2.1154,-2.117,-2.1198,-2.1207,-2.1233,-2.1204,-2.1232,-2.1251,-2.123,-2.1267,-2.1272,-2.1286,-2.1329,-2.1349,-2.1335,-2.1419,-2.1391,-2.1396,-2.1398,-2.1424,-2.1433,-2.1441,-2.1334,-2.1333,-2.1333,0,0,-2.1205,-2.1214,-2.1248,-2.1258,-2.1273,-2.1273,-2.1281,-2.1293,-2.1296,-2.1332,-2.1317,-2.1339,-2.1378,-2.1389,-2.14,-2.1464,-2.1452,-2.147,-2.1506,-2.1532,-2.154,-2.1547,-2.1571,-2.158,-2.1476,-2.1476,-2.1476,0,-2.1235,-2.1274,-2.1267,-2.1297,-2.131,-2.1291,-2.1326,-2.1336,-2.1357,-2.1366,-2.135,-2.1399,-2.1407,-2.1454,-2.1469,-2.1478,-2.1488,-2.147,-2.154,-2.1546,-2.1553,-2.1575,-2.1584,-2.1478,-2.1478,-2.1478,-2.1477,0,-2.131,-2.1337,-2.1363,-2.1385,-2.14,-2.1432,-2.143,-2.1446,-2.1439,-2.1441,-2.1478,-2.1487,-2.151,-2.152,-2.1514,-2.1566,-2.1557,-2.1541,-2.1513,-2.1564,-2.1586,-2.1594,-2.1481,-2.1481,-2.148,-2.1479,0,0,-2.1392,-2.1409,-2.1419,-2.1429,-2.1444,-2.1464,-2.1495,-2.1518,-2.1533,-2.1547,-2.1574,-2.1607,-2.1592,-2.1604,-2.1598,-2.1621,-2.1672,-2.1601,-2.1601,-2.1615,-2.1731,-2.1745,-2.1755,-2.1663,-2.1665,-2.1666,-2.1731,0,-2.1454,-2.1509,-2.1504,-2.1556,-2.1581,-2.1563,-2.159,-2.1603,-2.1605,-2.1626,-2.1628,-2.1652,-2.1629,-2.1637,-2.1658,-2.1661,-2.1696,-2.1656,-2.1688,-2.169,-2.1688,-2.1766,-2.1781,-2.1842,-2.1739,-2.174,-2.1741,0,-2.1534,-2.1553,-2.1608,-2.1619,-2.1629,-2.1654,-2.1675,-2.1695,-2.1708,-2.1708,-2.1721,-2.1712,-2.1743,-2.1713,-2.1756,-2.173,-2.1742,-2.1746,-2.1748,-2.1752,-2.172,-2.1775,-2.1861,-2.1871,-2.1754,-2.1753,-2.1752,0,-2.1591,-2.1629,-2.1667,-2.1675,-2.1689,-2.1707,-2.1714,-2.1725,-2.1739,-2.1757,-2.1766,-2.1786,-2.1798,-2.1814,-2.1811,-2.1789,-2.1855,-2.1825,-2.1857,-2.1857,-2.1873,-2.1872,-2.1964,-2.1878,-2.1878,-2.1878,-2.1878,0,-2.1661,-2.1696,-2.1692,-2.1716,-2.1754,-2.1747,-2.1785,-2.1789,-2.1799,-2.1823,-2.1808,-2.1831,-2.1824,-2.1846,-2.1843,-2.188,-2.1885,-2.1886,-2.1885,-2.1889,-2.1889,-2.1898,-2.1895,-2.188,-2.188,-2.1879,-2.1879,0,-2.1732,-2.173,-2.1771,-2.1781,-2.1784,-2.1812,-2.182,-2.1843,-2.1843,-2.1874,-2.188,-2.1881,-2.1907,-2.1904,-2.1932,-2.193,-2.1976,-2.1969,-2.1972,-2.1972,-2.2004,-2.2002,-2.2107,-2.2121,-2.2024,-2.2024,-2.2025,0,-2.1778,-2.1805,-2.1817,-2.1833,-2.1841,-2.1865,-2.188,-2.1873,-2.1888,-2.1905,-2.1926,-2.195,-2.1969,-2.2011,-2.2014,-2.2035,-2.203,-2.2065,-2.2033,-2.2036,-2.2033,-2.2032,-2.2035,-2.2072,-2.2073,-2.2074,-2.2075,0,-2.1861,-2.1859,-2.1881,-2.1902,-2.192,-2.1936,-2.1951,-2.1964,-2.1959,-2.1977,-2.2004,-2.2018,-2.2048,-2.2072,-2.2093,-2.2099,-2.2087,-2.2085,-2.2093,-2.2098,-2.21,-2.2101,-2.1992,-2.2083,-2.2082,-2.2081,-2.2081,-2.2081,-2.1922,-2.1945,-2.1958,-2.1982,-2.1993,-2.2007,-2.2029,-2.2032,-2.2054,-2.2077,-2.2072,-2.2101,-2.2114,-2.214,-2.2148,-2.2171,-2.2159,-2.2171,-2.2174,-2.2178,-2.2183,-2.2094,-2.2175,-2.2175,-2.2174,-2.2174,-2.2174,0,-2.2005,-2.2012,-2.2035,-2.2057,-2.2076,-2.2062,-2.2078,-2.2095,-2.2122,-2.2134,-2.2154,-2.2184,-2.2207,-2.2212,-2.2235,-2.2252,-2.2247,-2.2259,-2.2258,-2.226,-2.2192,-2.2183,-2.2262,-2.2262,-2.2262,-2.2262,-2.2262,-2.2262,-2.2051,-2.209,-2.2089,-2.2133,-2.214,-2.2169,-2.218,-2.2193,-2.2203,-2.2237,-2.2257,-2.226,-2.2269,-2.2292,-2.2313,-2.2314,-2.2324,-2.2338,-2.2337,-2.2273,-2.2265,-2.2256,-2.2248,-2.234,-2.234,-2.2403,-2.2403,-2.2404]}]]